Regional Weather Roundup
Issued by NWS

Home | Current Version | Previous Version | Graphics & Text | Print | Product List | Glossary Off
Versions: 1 2 3 4 5 6 7 8 9 10 11 12 13 14 15 16 17 18 19 20 21 22 23 24 25 26 27 28 29 30 31 32 33 34 35 36 37 38 39 40 41 42 43 44 45 46 47 48 49 50

000
ASUS43 KMKX 281811
RWRWI

WISCONSIN REGIONAL WEATHER ROUNDUP
NATIONAL WEATHER SERVICE MILWAUKEE/SULLIVAN WI
100 PM CDT WED SEP 28 2016

NOTE: "FAIR" INDICATES FEW OR NO CLOUDS BELOW 12,000 FEET WITH NO
SIGNIFICANT WEATHER AND/OR OBSTRUCTIONS TO VISIBILITY.

WIZ001-002-006>008-014>016-023>028-281900-
NORTHWEST WISCONSIN

CITY           SKY/WX    TMP DP  RH WIND       PRES   REMARKS
SUPERIOR ARPT  CLOUDY    59  49  69 NE10G16   30.22R
6HR MIN TEMP:  52; 6HR MAX TEMP:  60;

ASHLAND        CLOUDY    57  51  80 NE14G23   30.20R
6HR MIN TEMP:  53; 6HR MAX TEMP:  59; 6HR PCP: TRACE;

HAYWARD        CLOUDY    57  48  72 NE16G25   30.19R
6HR MIN TEMP:  52; 6HR MAX TEMP:  59; 6HR PCP: TRACE;

SIREN          CLOUDY    58  49  70 NE12G20   30.19S
6HR MIN TEMP:  51; 6HR MAX TEMP:  58;

CUMBERLAND     CLOUDY    57  46  67 N13G18    30.16R
RICE LAKE      PTSUNNY   62  49  63 N14       30.17R
6HR MIN TEMP:  51; 6HR MAX TEMP:  63;

CHETEK         NOT AVBL
LADYSMITH      PTSUNNY   61  50  68 NE12G17   30.15R
6HR MIN TEMP:  52; 6HR MAX TEMP:  62; 6HR PCP:  0.02;

EAU CLAIRE     CLOUDY    62  48  60 N15G24    30.11R
6HR MIN TEMP:  52; 6HR MAX TEMP:  63; 6HR PCP: TRACE;

MENOMONIE      PTSUNNY   64  50  61 N15G22    30.12R
6HR MIN TEMP:  51; 6HR MAX TEMP:  64;

NEW RICHMOND   CLOUDY    60  48  64 N16G22    30.17R
6HR MIN TEMP:  50; 6HR MAX TEMP:  61;

OSCEOLA        CLOUDY    60  50  70 N10       30.21R
6HR MIN TEMP:  51; 6HR MAX TEMP:  60;

$$

WIZ003>005-009-010-017-018-281900-
NORTH CENTRAL WISCONSIN

CITY           SKY/WX    TMP DP  RH WIND       PRES   REMARKS
MANITOWISH WTR NOT AVBL
ARBOR VITAE    LGT RAIN  57  52  82 N7G16     30.13R
6HR MIN TEMP:  52; 6HR MAX TEMP:  59;

WOODRUFF       LGT RAIN  57  52  82 N7G16     30.13R
6HR MIN TEMP:  52; 6HR MAX TEMP:  59;

RHINELANDER    PTSUNNY   61  49  64 N9        30.12R
6HR MIN TEMP:  51; 6HR MAX TEMP:  61; 6HR PCP:  0.02;

EAGLE RIVER    CLOUDY    59  46  63 NE8       30.12R
6HR MIN TEMP:  49; 6HR MAX TEMP:  60;

LAND O LAKES   CLOUDY    58  49  72 N12       30.15R
6HR MIN TEMP:  49; 6HR MAX TEMP:  58; 6HR PCP:  0.01;

PHILLIPS       CLOUDY    57  52  82 N15       30.13R
6HR MIN TEMP:  50; 6HR MAX TEMP:  60;

TOMAHAWK       CLOUDY    58  46  64 NE5       30.12R
6HR MIN TEMP:  49; 6HR MAX TEMP:  59;

MEDFORD        CLOUDY    59  50  72 NE13G20   30.10R
MERRILL        PTSUNNY   58  49  71 E10G17    30.10R
6HR MIN TEMP:  49; 6HR MAX TEMP:  58;

$$

WIZ029-030-035-036-043>047-281900-
CENTRAL WISCONSIN

CITY           SKY/WX    TMP DP  RH WIND       PRES   REMARKS
WAUSAU         PTSUNNY   61  48  62 N13       30.07R
6HR MIN TEMP:  51; 6HR MAX TEMP:  61;

MOSINEE        CLOUDY    57  50  77 NE12G18   30.09R
MARSHFIELD     PTSUNNY   60  48  64 NE13      30.07R
6HR MIN TEMP:  52; 6HR MAX TEMP:  63;

STEVENS POINT  CLOUDY    57  48  70 NE12      30.07R
6HR MIN TEMP:  48; 6HR MAX TEMP:  58;

WAUPACA        CLOUDY    62  49  63 NE10G18   30.05R
6HR MIN TEMP:  53; 6HR MAX TEMP:  64;

WAUTOMA        PTSUNNY   63  49  60 N16       30.03R
6HR MIN TEMP:  51; 6HR MAX TEMP:  63;

WISC RAPIDS    CLOUDY    60  50  69 NE14G21   30.07R
6HR MIN TEMP:  51; 6HR MAX TEMP:  61;

CAMP DOUGLAS   PTSUNNY   59  50  72 N7        30.05R
$$

WIZ011>013-019>022-031-037>040-048>050-281900-
NORTHEAST WISCONSIN

CITY           SKY/WX    TMP DP  RH WIND       PRES   REMARKS
ANTIGO         CLOUDY    57  49  74 NE14G20   30.09R
6HR MIN TEMP:  49; 6HR MAX TEMP:  59;

SHAWANO        CLOUDY    58  54  86 NE15G22   30.07R FOG
6HR MIN TEMP:  52; 6HR MAX TEMP:  59; 6HR PCP:  0.01;

OCONTO         NOT AVBL
STURGEON BAY   PTSUNNY   60  50  69 E10       30.05R
6HR MIN TEMP:  53; 6HR MAX TEMP:  61; 6HR PCP:  0.21;

GREEN BAY      CLOUDY    58  55  90 NE16G22   30.04R
6HR MIN TEMP:  49; 6HR MAX TEMP:  60; 6HR PCP:  0.06;

MANITOWOC      CLOUDY    60  48  64 E10       30.02R
6HR MIN TEMP:  49; 6HR MAX TEMP:  61;

APPLETON       PTSUNNY   55  54  94 E12       30.02R
CLINTONVILLE   NOT AVBL
OSHKOSH        CLOUDY    59  50  72 NE12      30.01R
6HR MIN TEMP:  51; 6HR MAX TEMP:  60; 6HR PCP: TRACE;

$$

WIZ032>034-041-042-053>061-281900-
SOUTHWEST WISCONSIN

CITY           SKY/WX    TMP DP  RH WIND       PRES   REMARKS
LA CROSSE      LGT RAIN  61  54  77 N13       30.08R
6HR MIN TEMP:  53; 6HR MAX TEMP:  65; 6HR PCP:  0.01;

SPARTA         CLOUDY    61  53  73 N9        30.07R
6HR MIN TEMP:  49; 6HR MAX TEMP:  61;

VIROQUA        PTSUNNY   61  51  71 N13       30.06R
6HR MIN TEMP:  48; 6HR MAX TEMP:  61;

BOSCOBEL       CLOUDY    61  50  67 N7        30.05R
6HR MIN TEMP:  51; 6HR MAX TEMP:  61; 6HR PCP:  0.01;

PRAIRIE DU CHI CLOUDY    59  48  67 N8        30.06R
6HR MIN TEMP:  50; 6HR MAX TEMP:  59;

PLATTEVILLE    CLOUDY    57  51  79 N15       30.03R
6HR MIN TEMP:  49; 6HR MAX TEMP:  60;

$$

WIZ056-057-062-063-064-067-068-281900-
SOUTH CENTRAL WISCONSIN

CITY           SKY/WX    TMP DP  RH WIND       PRES   REMARKS
REEDSBURG      NOT AVBL
BARABOO/DELLS  LGT RAIN  56  49  78 N8G16     30.03R
6HR MIN TEMP:  48; 6HR MAX TEMP:  58;

LONE ROCK      CLOUDY    61  49  64 N10       30.04R
6HR MIN TEMP:  51; 6HR MAX TEMP:  61;

MINERAL POINT  CLOUDY    59  50  72 N15       30.03R
MADISON        LGT RAIN  55  51  86 NE14      30.01R FOG
6HR MIN TEMP:  49; 6HR MAX TEMP:  59; 6HR PCP: TRACE;

MIDDLETON      CLOUDY    60  51  70 N12       30.01R
6HR MIN TEMP:  51; 6HR MAX TEMP:  60;

WATERTOWN      CLOUDY    58  52  80 N9        29.98R
6HR MIN TEMP:  49; 6HR MAX TEMP:  58; 6HR PCP:  0.06;

MONROE         CLOUDY    55  46  71 N13G23    29.99R
JANESVILLE     CLOUDY    61  48  63 NE8G16    29.97R
$$

WIZ051-052-058>065-066-070>072-281900-
SOUTHEAST WISCONSIN

CITY           SKY/WX    TMP DP  RH WIND       PRES   REMARKS
MILWAUKEE      CLOUDY    58  51  78 N13       29.98R
6HR MIN TEMP:  52; 6HR MAX TEMP:  59; 6HR PCP: TRACE;

WAUKESHA       PTSUNNY   55  52  88 N5        29.99R
MILWAUKEE/TIMM CLOUDY    55  50  82 N9        29.98R
RACINE         PTSUNNY   58  51  78 N14       29.98R
6HR MIN TEMP:  50; 6HR MAX TEMP:  58; 6HR PCP: TRACE;

BURLINGTON     CLOUDY    58  47  66 N10G18    29.97R
KENOSHA        CLOUDY    59  49  69 N9G18     29.96R
6HR MIN TEMP:  50; 6HR MAX TEMP:  59; 6HR PCP: TRACE;

FOND DU LAC    CLOUDY    58  50  75 NE14      30.01R
6HR MIN TEMP:  51; 6HR MAX TEMP:  59; 6HR PCP:  0.05;

SHEBOYGAN      PTSUNNY   60  51  72 E15       30.00R
6HR MIN TEMP:  48; 6HR MAX TEMP:  61; 6HR PCP:  0.01;

WEST BEND      CLOUDY    59  50  72 NE13      29.99R
JUNEAU         LGT RAIN  55  52  89 N12G20    30.01R
$$

LSZ147-162-281900-
LAKE SUPERIOR

STATION/POSITION TIME  TEMP    WIND        PRES    WAVE
                       AIR SEA DIR/SP/G            HT/PER
                 (UTC) (F)     (DEG/KT/KT) (MB)    (FT/S)
W MID LAKE BUOY  1750   55 51   40/ 10/ 12 1022.4R   5/ 7
DEVILS ISLAND    1800   54      30/ 13/ 15 1023.4R
SAXON HARBOR     1740   56      30/ 18/ 21 1022.0R
$$

LMZ867-665-643>646-281900-
LAKE MICHIGAN

STATION/POSITION TIME  TEMP    WIND        PRES    WAVE
                       AIR SEA DIR/SP/G            HT/PER
                 (UTC) (F)     (DEG/KT/KT) (MB)    (FT/S)
CHAMBERS ISLAND  1700   59      20/ 20/ 22 1016.6R
N MID LAKE BUOY  1750   60 66   60/ 16/ 17 1017.4R   2/ 4
NORTHPORT PIER   1700   61      60/ 15/ 18 1017.3R
SISTER BAY       1708   66      80/ 10/ 20   N/A
KEWAUNEE LAKESHO 1700   57      40/  8/ 12 1015.4R
SHEBOYGAN LAKESH 1800   57      30/ 13/ 14 1015.9R
PORT WASHINGTON  1700   57      30/  7/ 13 1015.2R
ATWATER BUOY     1800   54 54  350/  8/ 10 1015.2R
MILWAUKEE LAKESH 1710   55     360/  9/ 12   N/AC1F1C2F2C3F3C4F4C5F5C6F6C7F7C8M1C9M2Ca!



USA.gov is the U.S. government's official web portal to all federal, state and local government web resources and services.